FW9120 Weather Reports


time (UTC)temp
C
wind
direction
speed
KPH
gust
KPH
rain 1hr
cm
rain 24hr
cm
rain mn
cm
humidity
%
barometer
mb
20260507065322 13 309 3.2 3.2 0.00 0.00 0.00 30 815.4
20260507064820 13 308 1.6 3.2 0.00 0.00 0.00 29 815.6
20260507064318 13 329 3.2 3.2 0.00 0.00 0.00 33 815.6
20260507063816 13 4 1.6 1.6 0.00 0.00 0.00 32 815.4
20260507063312 13 343 4.8 4.8 0.00 0.00 0.00 33 815.5
20260507062809 14 331 1.6 1.6 0.00 0.00 0.00 34 815.5
20260507062306 14 331 1.6 1.6 0.00 0.00 0.00 31 815.7
20260507061804 14 308 3.2 3.2 0.00 0.00 0.00 31 815.8
20260507061302 14 288 3.2 3.2 0.00 0.00 0.00 28 816.0
20260507060800 14 291 4.8 4.8 0.00 0.00 0.00 28 816.0
20260507060256 14 307 3.2 3.2 0.00 0.00 0.00 28 815.7
20260507055753 14 307 1.6 3.2 0.00 0.00 0.00 29 815.7
20260507055248 13 340 3.2 3.2 0.00 0.00 0.00 32 815.7
20260507054745 14 21 1.6 3.2 0.00 0.00 0.00 28 816.1
20260507054241 14 8 3.2 3.2 0.00 0.00 0.00 29 816.0
20260507053739 14 1 3.2 3.2 0.00 0.00 0.00 31 816.1
20260507053236 15 0 3.2 3.2 0.00 0.00 0.00 29 816.1
20260507052735 14 3 3.2 3.2 0.00 0.00 0.00 31 816.4
20260507052231 14 359 3.2 3.2 0.00 0.00 0.00 33 816.3
20260507051729 15 347 3.2 3.2 0.00 0.00 0.00 31 816.3
20260507051226 13 338 4.8 4.8 0.00 0.00 0.00 30 816.2
20260507050722 13 299 4.8 4.8 0.00 0.00 0.00 35 816.3
20260507050220 15 355 3.2 3.2 0.00 0.00 0.00 32 816.3
20260507045716 15 30 4.8 4.8 0.00 0.00 0.00 27 816.5
20260507045212 13 37 3.2 3.2 0.00 0.00 0.00 31 816.3
20260507044710 13 358 4.8 4.8 0.00 0.00 0.00 33 816.4
20260507044206 15 4 4.8 4.8 0.00 0.00 0.00 33 816.4
20260507043702 15 34 4.8 4.8 0.00 0.00 0.00 30 816.4
20260507043159 15 297 1.6 3.2 0.00 0.00 0.00 29 816.4
20260507042656 15 318 3.2 3.2 0.00 0.00 0.00 30 816.6
20260507042150 13 331 4.8 4.8 0.00 0.00 0.00 34 816.6
20260507041648 14 342 1.6 1.6 0.00 0.00 0.00 33 816.5
20260507041144 15 343 3.2 3.2 0.00 0.00 0.00 31 816.6
20260507040642 15 345 3.2 3.2 0.00 0.00 0.00 32 816.6
20260507040138 15 344 3.2 3.2 0.00 0.00 0.00 30 816.6
20260507035634 15 321 0.0 0.0 0.00 0.00 0.00 29 816.4
20260507035130 15 321 0.0 0.0 0.00 0.00 0.00 30 816.5
20260507034627 15 321 1.6 3.2 0.00 0.00 0.00 31 816.3
20260507034125 15 316 1.6 3.2 0.00 0.00 0.00 28 816.5
20260507033623 15 267 1.6 1.6 0.00 0.00 0.00 30 816.5
20260507033119 15 4 1.6 1.6 0.00 0.00 0.00 28 816.6
20260507032617 15 354 3.2 3.2 0.00 0.00 0.00 27 816.5
20260507032113 16 335 3.2 3.2 0.00 0.00 0.00 27 816.5
20260507031610 16 319 3.2 3.2 0.00 0.00 0.00 27 816.5
20260507031106 17 351 4.8 4.8 0.00 0.00 0.00 21 816.4
20260507030603 16 11 6.4 8.0 0.00 0.00 0.00 23 816.4
20260507030101 16 1 4.8 4.8 0.00 0.00 0.00 23 816.4
20260507025558 17 292 1.6 1.6 0.00 0.00 0.00 22 816.2
20260507025055 17 342 6.4 9.7 0.00 0.00 0.00 21 816.4
20260507024553 17 327 4.8 4.8 0.00 0.00 0.00 20 816.3
20260507024049 17 290 3.2 3.2 0.00 0.00 0.00 21 816.4
20260507023545 17 293 4.8 4.8 0.00 0.00 0.00 20 816.4
20260507023043 17 301 3.2 3.2 0.00 0.00 0.00 24 816.5
20260507022539 17 328 6.4 9.7 0.00 0.00 0.00 22 816.6
20260507022035 16 7 3.2 3.2 0.00 0.00 0.00 28 816.7
20260507021531 16 334 3.2 3.2 0.00 0.00 0.00 29 816.5
20260507021028 16 4 4.8 4.8 0.00 0.00 0.00 26 816.6
20260507020525 16 342 4.8 8.0 0.00 0.00 0.00 27 816.4
20260507020022 16 321 3.2 3.2 0.00 0.00 0.00 26 816.6
20260507015520 17 322 1.6 1.6 0.00 0.00 0.00 24 816.5
20260507015017 17 328 4.8 4.8 0.00 0.00 0.00 24 816.5
20260507014514 17 314 3.2 3.2 0.00 0.00 0.00 24 816.4
20260507014010 17 335 4.8 4.8 0.00 0.00 0.00 25 816.4
20260507013506 17 326 1.6 1.6 0.00 0.00 0.00 25 816.4
20260507013004 18 321 4.8 4.8 0.00 0.00 0.00 22 816.2
20260507012501 18 6 4.8 4.8 0.00 0.00 0.00 22 816.3
20260507011957 18 47 4.8 4.8 0.00 0.00 0.00 23 816.2
20260507011454 18 15 4.8 4.8 0.00 0.00 0.00 24 816.2
20260507010950 18 354 3.2 3.2 0.00 0.00 0.00 23 816.2
20260507010444 18 28 3.2 4.8 0.00 0.00 0.00 21 816.3
20260507005942 19 39 4.8 4.8 0.00 0.00 0.00 21 816.3
20260507005439 20 19 3.2 3.2 0.00 0.00 0.00 20 816.3
20260507004935 20 354 1.6 1.6 0.00 0.00 0.00 19 816.3
20260507004432 20 48 4.8 4.8 0.00 0.00 0.00 19 816.1
20260507003930 20 18 3.2 4.8 0.00 0.00 0.00 19 816.1
20260507003424 20 66 0.0 1.6 0.00 0.00 0.00 18 816.1
20260507002920 21 350 3.2 3.2 0.00 0.00 0.00 17 815.8
20260507002416 20 62 8.0 11.3 0.00 0.00 0.00 18 816.0
20260507001914 20 45 8.0 11.3 0.00 0.00 0.00 19 816.0
20260507001410 20 333 3.2 3.2 0.00 0.00 0.00 21 815.8
20260507000908 19 100 3.2 3.2 0.00 0.00 0.00 21 815.7
20260507000405 19 80 1.6 4.8 0.00 0.00 0.00 23 815.5
20260506235859 20 117 3.2 3.2 0.00 0.00 0.00 23 815.4
20260506235356 20 63 4.8 4.8 0.00 0.00 0.00 22 815.5
20260506234852 20 16 4.8 4.8 0.00 0.00 0.00 20 815.3
20260506234350 20 12 16.1 20.9 0.00 0.00 0.00 22 815.4
20260506233847 20 96 9.7 11.3 0.00 0.00 0.00 20 815.0
20260506233343 20 326 8.0 12.9 0.00 0.00 0.00 19 815.1
20260506232840 20 2 8.0 11.3 0.00 0.00 0.00 19 815.2
20260506232336 21 10 4.8 4.8 0.00 0.00 0.00 20 815.1
20260506231827 21 46 11.3 14.5 0.00 0.00 0.00 19 814.9
20260506231324 21 129 1.6 3.2 0.00 0.00 0.00 20 815.0
20260506230821 21 6 8.0 11.3 0.00 0.00 0.00 21 814.9
20260506230318 21 26 4.8 8.0 0.00 0.00 0.00 21 814.9
20260506225814 21 55 14.5 24.1 0.00 0.00 0.00 21 814.9
20260506225312 21 31 11.3 14.5 0.00 0.00 0.00 21 814.9
20260506224809 21 37 11.3 14.5 0.00 0.00 0.00 21 814.5
20260506224306 21 334 11.3 20.9 0.00 0.00 0.00 20 814.4
20260506223802 21 25 14.5 20.9 0.00 0.00 0.00 21 814.5
20260506223257 21 2 12.9 16.1 0.00 0.00 0.00 20 814.6
20260506222754 21 349 11.3 14.5 0.00 0.00 0.00 20 814.4
20260506222250 20 12 4.8 4.8 0.00 0.00 0.00 21 814.5
20260506221748 20 51 4.8 4.8 0.00 0.00 0.00 21 814.5
20260506221246 21 16 6.4 8.0 0.00 0.00 0.00 21 814.5
20260506220743 21 32 6.4 8.0 0.00 0.00 0.00 20 814.5
20260506220238 21 13 4.8 4.8 0.00 0.00 0.00 19 814.5
20260506215735 21 25 8.0 11.3 0.00 0.00 0.00 17 814.4
20260506215230 21 343 6.4 8.0 0.00 0.00 0.00 17 814.4
20260506214727 21 20 3.2 3.2 0.00 0.00 0.00 18 814.3
20260506214224 21 19 4.8 4.8 0.00 0.00 0.00 16 814.2
20260506213722 22 23 3.2 3.2 0.00 0.00 0.00 15 814.2
20260506213219 22 0 6.4 8.0 0.00 0.00 0.00 13 814.0
20260506212717 22 19 6.4 8.0 0.00 0.00 0.00 13 814.2
20260506212212 23 344 4.8 4.8 0.00 0.00 0.00 13 814.2
20260506211708 23 1 4.8 4.8 0.00 0.00 0.00 12 814.0
20260506211205 23 326 4.8 4.8 0.00 0.00 0.00 11 814.0
20260506210702 25 3 1.6 1.6 0.00 0.00 0.00 11 813.9
20260506210158 25 290 1.6 1.6 0.00 0.00 0.00 10 814.1
20260506205655 25 280 6.4 9.7 0.00 0.00 0.00 10 814.1
20260506205150 25 300 4.8 4.8 0.00 0.00 0.00 10 814.1
20260506204648 26 337 8.0 9.7 0.00 0.00 0.00 10 814.0
20260506204144 26 318 9.7 11.3 0.00 0.00 0.00 10 814.0
20260506203643 25 291 6.4 8.0 0.00 0.00 0.00 10 814.0
20260506203139 26 281 8.0 9.7 0.00 0.00 0.00 10 814.0
20260506202638 27 236 9.7 11.3 0.00 0.00 0.00 10 814.1
20260506202133 27 251 1.6 1.6 0.00 0.00 0.00 10 814.1
20260506201631 28 221 1.6 1.6 0.00 0.00 0.00 10 814.1
20260506201127 27 253 0.0 0.0 0.00 0.00 0.00 10 813.9
20260506200624 27 286 1.6 1.6 0.00 0.00 0.00 10 814.0
20260506200120 27 266 1.6 1.6 0.00 0.00 0.00 10 814.1
20260506195617 27 223 3.2 3.2 0.00 0.00 0.00 10 814.2
20260506195113 27 207 3.2 3.2 0.00 0.00 0.00 10 814.1
20260506194611 27 215 0.0 1.6 0.00 0.00 0.00 10 814.2
20260506194107 27 234 1.6 1.6 0.00 0.00 0.00 10 814.0
20260506193605 27 211 1.6 1.6 0.00 0.00 0.00 10 814.0
20260506193102 27 201 1.6 3.2 0.00 0.00 0.00 10 814.3
20260506192559 26 147 4.8 4.8 0.00 0.00 0.00 10 814.3
20260506192055 28 228 4.8 8.0 0.00 0.00 0.00 10 814.2
20260506191551 27 266 0.0 0.0 0.00 0.00 0.00 10 814.3
20260506191047 27 243 1.6 3.2 0.00 0.00 0.00 10 814.5
20260506190545 26 259 1.6 1.6 0.00 0.00 0.00 10 814.4
20260506190042 27 285 0.0 0.0 0.00 0.00 0.00 10 814.5
20260506185539 26 254 3.2 3.2 0.00 0.00 0.00 10 814.6
20260506185036 27 262 1.6 1.6 0.00 0.00 0.00 10 814.5
20260506184533 27 189 4.8 9.7 0.00 0.00 0.00 10 814.9
20260506184030 27 118 8.0 9.7 0.00 0.00 0.00 10 814.9
20260506183526 26 253 3.2 3.2 0.00 0.00 0.00 10 815.1
20260506183023 26 140 4.8 8.0 0.00 0.00 0.00 10 815.2
20260506182520 26 209 4.8 4.8 0.00 0.00 0.00 10 815.0
20260506182017 26 143 6.4 9.7 0.00 0.00 0.00 10 815.0
20260506181515 27 281 1.6 1.6 0.00 0.00 0.00 10 815.2
20260506181012 27 182 3.2 3.2 0.00 0.00 0.00 10 815.3
20260506180508 27 177 8.0 9.7 0.00 0.00 0.00 10 815.2
20260506180006 27 173 4.8 8.0 0.00 0.00 0.00 10 815.4
20260506175501 27 191 1.6 1.6 0.00 0.00 0.00 10 815.6
20260506174958 26 280 1.6 3.2 0.00 0.00 0.00 10 815.5
20260506174457 26 188 3.2 4.8 0.00 0.00 0.00 10 815.7
20260506173952 26 90 4.8 4.8 0.00 0.00 0.00 10 816.0
20260506173450 27 143 4.8 4.8 0.00 0.00 0.00 10 816.2
20260506172946 26 211 3.2 3.2 0.00 0.00 0.00 10 816.2
20260506172443 25 108 4.8 8.0 0.00 0.00 0.00 10 816.4
20260506171934 27 321 1.6 3.2 0.00 0.00 0.00 10 816.4
20260506171432 25 238 4.8 4.8 0.00 0.00 0.00 10 816.2
20260506170930 24 222 3.2 3.2 0.00 0.00 0.00 10 816.5
20260506170426 25 70 8.0 11.3 0.00 0.00 0.00 10 816.5
20260506165924 25 219 4.8 4.8 0.00 0.00 0.00 10 816.6
20260506165422 25 56 4.8 4.8 0.00 0.00 0.00 12 816.8
20260506164918 25 268 0.0 1.6 0.00 0.00 0.00 10 816.9
20260506164415 25 169 4.8 4.8 0.00 0.00 0.00 12 817.0
20260506163913 23 289 1.6 1.6 0.00 0.00 0.00 11 817.0
20260506163407 24 49 4.8 4.8 0.00 0.00 0.00 12 817.3
20260506162903 25 162 4.8 4.8 0.00 0.00 0.00 12 817.4
20260506162401 24 43 4.8 8.0 0.00 0.00 0.00 16 817.4
20260506161858 24 228 1.6 3.2 0.00 0.00 0.00 14 817.7
20260506161355 23 126 1.6 1.6 0.00 0.00 0.00 14 817.5
20260506160853 24 72 4.8 4.8 0.00 0.00 0.00 13 817.7
20260506160350 23 38 1.6 3.2 0.00 0.00 0.00 13 817.8
20260506155848 23 131 4.8 4.8 0.00 0.00 0.00 17 818.1
20260506155344 23 165 1.6 1.6 0.00 0.00 0.00 14 818.2
20260506153502 22 53 3.2 3.2 0.00 0.00 0.00 13 818.5
20260506152959 21 127 1.6 1.6 0.00 0.00 0.00 23 818.7
20260506152456 21 186 6.4 8.0 0.00 0.00 0.00 20 818.8
20260506151954 21 245 1.6 1.6 0.00 0.00 0.00 22 818.7
20260506151452 21 255 1.6 1.6 0.00 0.00 0.00 24 819.1
20260506150949 20 194 6.4 8.0 0.00 0.00 0.00 24 819.2
20260506150445 20 241 0.0 1.6 0.00 0.00 0.00 24 819.3
20260506145942 20 305 0.0 0.0 0.00 0.00 0.00 24 819.4
20260506145438 20 231 3.2 3.2 0.00 0.00 0.00 27 819.4
20260506144936 20 218 4.8 4.8 0.00 0.00 0.00 26 819.3
20260506144432 21 189 6.4 8.0 0.00 0.00 0.00 25 819.4
20260506143931 21 108 3.2 3.2 0.00 0.00 0.00 23 819.5
20260506143427 20 112 1.6 1.6 0.00 0.00 0.00 21 819.8
20260506142926 20 126 4.8 4.8 0.00 0.00 0.00 23 819.9
20260506142423 19 220 1.6 1.6 0.00 0.00 0.00 24 819.8
20260506141921 19 198 3.2 3.2 0.00 0.00 0.00 25 819.9
20260506141419 21 216 1.6 3.2 0.00 0.00 0.00 22 820.0
20260506140917 20 101 1.6 3.2 0.00 0.00 0.00 22 820.0
20260506140414 20 300 1.6 1.6 0.00 0.00 0.00 22 819.9
20260506135911 20 177 1.6 1.6 0.00 0.00 0.00 23 820.1
20260506135408 18 229 1.6 1.6 0.00 0.00 0.00 27 820.0
20260506134904 18 227 0.0 1.6 0.00 0.00 0.00 25 820.3
20260506134400 17 163 3.2 3.2 0.00 0.00 0.00 26 820.0
20260506133857 18 195 3.2 3.2 0.00 0.00 0.00 27 820.1
20260506133354 19 123 4.8 4.8 0.00 0.00 0.00 25 820.1
20260506132850 18 2 3.2 3.2 0.00 0.00 0.00 25 820.0
20260506132348 17 151 0.0 1.6 0.00 0.00 0.00 29 820.0
20260506131846 17 179 3.2 3.2 0.00 0.00 0.00 30 820.2
20260506131342 18 165 3.2 3.2 0.00 0.00 0.00 29 820.1
20260506130839 18 255 0.0 0.0 0.00 0.00 0.00 27 820.3
20260506130335 17 287 0.0 0.0 0.00 0.00 0.00 28 820.1
20260506125833 16 246 0.0 0.0 0.00 0.00 0.00 31 820.0
20260506125331 15 246 1.6 1.6 0.00 0.00 0.00 33 820.2
20260506124830 15 220 1.6 3.2 0.00 0.00 0.00 34 820.1
20260506124326 15 237 1.6 1.6 0.00 0.00 0.00 36 820.1
20260506123824 15 256 1.6 3.2 0.00 0.00 0.00 33 820.0
20260506123322 15 267 0.0 1.6 0.00 0.00 0.00 34 819.8
20260506122819 16 316 0.0 0.0 0.00 0.00 0.00 31 819.9
20260506122316 15 325 0.0 1.6 0.00 0.00 0.00 31 819.8
20260506121814 15 325 0.0 1.6 0.00 0.00 0.00 32 819.8
20260506121311 15 326 1.6 1.6 0.00 0.00 0.00 31 820.0
20260506120808 13 326 3.2 3.2 0.00 0.00 0.00 34 819.9
20260506120306 14 326 0.0 0.0 0.00 0.00 0.00 35 820.1
20260506115803 15 327 0.0 1.6 0.00 0.00 0.00 34 820.2
20260506115306 13 327 1.6 1.6 0.00 0.00 0.00 36 820.3
20260506114759 12 327 1.6 1.6 0.00 0.00 0.00 38 820.1
20260506114256 13 50 3.2 3.2 0.00 0.00 0.00 37 820.3
20260506113755 13 62 1.6 1.6 0.00 0.00 0.00 33 820.0
20260506113252 12 72 3.2 4.8 0.00 0.00 0.00 34 820.0
20260506112748 11 27 3.2 3.2 0.00 0.00 0.00 36 820.0
20260506112245 11 10 3.2 3.2 0.00 0.00 0.00 34 820.1
20260506111743 11 32 3.2 3.2 0.00 0.00 0.00 36 820.1
20260506111241 11 20 3.2 3.2 0.00 0.00 0.00 35 819.9
20260506110737 11 11 3.2 3.2 0.00 0.00 0.00 34 819.9
20260506110235 11 25 3.2 3.2 0.00 0.00 0.00 34 819.9
20260506105731 11 349 3.2 3.2 0.00 0.00 0.00 38 819.8
20260506105229 11 350 4.8 4.8 0.00 0.00 0.00 39 819.7
20260506104727 12 345 3.2 3.2 0.00 0.00 0.00 34 819.5
20260506104224 11 353 3.2 3.2 0.00 0.00 0.00 42 819.8
20260506103721 11 354 4.8 4.8 0.00 0.00 0.00 38 819.5
20260506103218 11 354 1.6 3.2 0.00 0.00 0.00 37 819.3
20260506102716 10 356 4.8 4.8 0.00 0.00 0.00 41 819.3
20260506102214 10 356 1.6 1.6 0.00 0.00 0.00 39 819.4
20260506101710 11 356 3.2 3.2 0.00 0.00 0.00 40 819.3
20260506101207 11 356 3.2 3.2 0.00 0.00 0.00 40 819.4
20260506100705 10 356 0.0 0.0 0.00 0.00 0.00 39 819.2
20260506100203 12 356 1.6 3.2 0.00 0.00 0.00 39 819.1
20260506095701 11 356 1.6 1.6 0.00 0.00 0.00 36 818.9
20260506095157 12 356 1.6 1.6 0.00 0.00 0.00 35 819.0
20260506094655 12 356 1.6 1.6 0.00 0.00 0.00 36 818.9
20260506094152 12 355 0.0 0.0 0.00 0.00 0.00 35 818.8
20260506093651 11 355 1.6 1.6 0.00 0.00 0.00 36 818.9
20260506093148 11 356 1.6 1.6 0.00 0.00 0.00 40 818.8
20260506092645 11 356 3.2 3.2 0.00 0.00 0.00 41 818.8
20260506092142 11 356 1.6 1.6 0.00 0.00 0.00 40 818.7
20260506091640 11 356 3.2 3.2 0.00 0.00 0.00 38 818.8
20260506091137 11 356 3.2 3.2 0.00 0.00 0.00 38 818.8
20260506090636 11 356 3.2 3.2 0.00 0.00 0.00 37 818.6
20260506090131 11 357 3.2 3.2 0.00 0.00 0.00 39 818.6
20260506085629 11 358 3.2 3.2 0.00 0.00 0.00 39 818.7
20260506085125 11 358 3.2 3.2 0.00 0.00 0.00 40 818.5
20260506084621 11 358 3.2 3.2 0.00 0.00 0.00 38 818.5
20260506084118 11 358 3.2 3.2 0.00 0.00 0.00 38 818.6
20260506083615 11 2 1.6 1.6 0.00 0.00 0.00 41 818.5
20260506083113 11 3 1.6 3.2 0.00 0.00 0.00 39 818.5
20260506082609 12 3 1.6 3.2 0.00 0.00 0.00 37 818.6
20260506082105 12 358 3.2 3.2 0.00 0.00 0.00 37 818.6
20260506081603 13 23 3.2 3.2 0.00 0.00 0.00 34 818.5
20260506081101 12 30 1.6 3.2 0.00 0.00 0.00 32 818.3
20260506080558 12 5 1.6 3.2 0.00 0.00 0.00 34 818.5
20260506073038 12 9 3.2 3.2 0.00 0.00 0.00 36 818.6
20260506072536 13 7 3.2 3.2 0.00 0.00 0.00 34 818.5
20260506072033 13 352 3.2 3.2 0.00 0.00 0.00 34 818.2
20260506071531 13 349 4.8 4.8 0.00 0.00 0.00 32 818.3
20260506071028 12 348 4.8 4.8 0.00 0.00 0.00 33 818.5
20260506070525 12 348 3.2 3.2 0.00 0.00 0.00 36 818.1